User: anonymous   Login
Location: Leo
(52.0556°N, 112.3605°W)
Time: 13:24:13
(UTC+00:00)
Language:

VELOX 1 - Orbit

View from above orbital plane
View from above orbital plane
View from above satellite
View from above satellite

Ground track
Ground track

The orbit data is extracted from the following two-line orbital elements,

1 40057U 14034E   23335.09855084  .00006891  00000-0  84212-3 0  9997
2 40057  98.3576 175.8029 0010707  66.9074 293.3266 14.83570168508169
Epoch (UTC): 01 December 2023 02:21:54
Eccentricity: 0.0010707
inclination: 98.3576°
perigee height: 610 km
apogee height: 625 km
right ascension of ascending node: 175.8029°
argument of perigee: 66.9074°
revolutions per day: 14.83570168
mean anomaly at epoch: 293.3266°
orbit number at epoch: 50816

The dashed part of the orbit path shows where the satellite is in the earth's shadow,  

DLR